Hourly Data Report for January 17, 2017

All times are specified in Local Standard Time (LST). Add 1 hour to adjust for Daylight Saving Time where and when it is observed.

ST LEONARD CS
NEW BRUNSWICK

47°09'28.050" N
67°49'55.014" W
245.00 m
810I001
71019
WIY

Download Data

Hourly Data (January 2017)
Hourly Data Report for January 17, 2017
Temp Definition
°C
Dew Point Temp Definition
°C
Rel Hum Definition
%
Wind Dir Definition
10's deg

Wind Spd Definition
km/h
Visibility Definition
km
Stn Press Definition
kPa
Hmdx Definition


Wind Chill Definition


Weather Definition


TIME
00:00 -7.1 -7.5 97 29 6   98.59   -10 LegendNANA
01:00 -5.0 -6.2 91 28 9   98.63   -9 LegendNANA
02:00 -4.7 -5.5 94 30 15   98.67   -10 LegendNANA
03:00 -4.6 -8.1 77 30 18   98.74   -11 LegendNANA
04:00 -4.6 -9.4 69 31 29   98.79   -12 LegendNANA
05:00 -4.8 -9.2 71 31 25   98.90   -12 LegendNANA
06:00 -5.3 -9.4 73 33 18   99.02   -12 LegendNANA
07:00 -7.6 -11.8 71 32 24   99.13   -16 LegendNANA
08:00 -10.0 -13.3 77 34 11   99.22   -16 LegendNANA
09:00 -11.1 -15.2 72 34 18   99.39   -19 LegendNANA
10:00 -11.3 -16.2 67 33 18   99.51   -19 LegendNANA
11:00 -11.0 -16.6 63 32 18   99.56   -19 LegendNANA
12:00 -10.2 -16.9 58 32 14   99.53   -17 LegendNANA
13:00 -9.5 -17.3 53 33 11   99.51   -15 LegendNANA
14:00 -8.9 -17.3 51 31 12   99.49   -15 LegendNANA
15:00 -8.0 -18.0 44 33 13   99.46   -14 LegendNANA
16:00 -8.1 -17.6 46 30 6   99.53   -11 LegendNANA
17:00 -9.6 -16.9 56 30 8   99.57   -14 LegendNANA
18:00 -13.4 -17.6 70 1 3   99.61   -15 LegendNANA
19:00 -13.9 -17.3 76 3 8   99.59   -19 LegendNANA
20:00 -14.0 -18.2 71 4 7   99.58   -19 LegendNANA
21:00 -14.0 -17.1 77 4 8   99.58   -19 LegendNANA
22:00 -15.4 -17.8 82 6 7   99.57   -20 LegendNANA
23:00 -16.1 -18.3 83 5 7   99.54   -21 LegendNANA

Notes on Data Quality.

Legend

  • E = Estimated
  • M = Missing
  • NA = Not Available
  • ‡ = Partner data that is not subject to review by the National Climate Archives
Date modified: